Terug naar catalogus

CZ-6A DEB

ActiefPO
NORAD 60841·DEBRIS·🇨🇳 China

Gelanceerd Aug 6, 2024 vanaf Taiyuan Satellite Launch Center

Loading…

Volgende Passages (komende 24 uur)

TLE

VersSource: Space-Track

Epoch: Sep 14, 2026, 07:40 UTC

1 60841U 24140HU  26257.31967755  .00000793  00000-0  34504-3 0  9993
2 60841  89.0000 264.7456 0040875 244.5499 115.1460 14.22702599108281

Volg CZ-6A DEB in realtime met AllMySat

Download on the App Store